Montrose, CO

5:46 AM MDT on May 25, 2018 (GMT -0600)
Montrose Regional

Weather History for KMTJ - October, 2012

Change the Weather History Date:

Thursday, October 4, 2012

  Actual Average Record
Temperature  
Mean Temperature 63 °F 55 °F  
Max Temperature 80 °F 70 °F 81 °F (2017)
Min Temperature 45 °F 40 °F 31 °F (2016)
Degree Days  
Heating Degree Days 2 10  
Month to date heating degree days 13 38  
Since 1 July heating degree days 90 165  
Cooling Degree Days 0 0  
Month to date cooling degree days 0 0  
Year to date cooling degree days 906 643  
Growing Degree Days 13 (Base 50)    
Moisture  
Dew Point 29 °F    
Average Humidity 33    
Maximum Humidity 53    
Minimum Humidity 13    
Precipitation  
Precipitation 0.00 in 0.05 in 0.40 in (1998)
Month to date precipitation 0.00 0.24  
Year to date precipitation 4.87 8.89  
Sea Level Pressure  
Sea Level Pressure 29.92 in    
Wind  
Wind Speed 9 mph (South)    
Max Wind Speed 25 mph    
Max Gust Speed 45 mph    
Visibility 10 miles    
Events      
T = Trace of Precipitation, MM = Missing Value Source: NWS Daily Summary

Daily Weather History Graph

Daily Weather History Graph

Search for Another Location

Airport or City:

Astronomy

Oct. 04, 2012 Rise Set
Actual Time 7:10 AM MDT 6:48 PM MDT
Civil Twilight 6:44 AM MDT 7:15 PM MDT
Nautical Twilight 6:13 AM MDT 7:45 PM MDT
Astronomical Twilight 5:42 AM MDT 8:16 PM MDT
Moon 9:30 PM MDT (10/4) 11:27 AM MDT (10/4)
Length of Visible Light 12h 31m
Length of Day
11h 38m
Waning Gibbous, 81% of the Moon is Illuminated
Oct 4
Waning Gibbous
Oct 8
Last Quarter
Oct 15
New
Oct 21
First Quarter
Oct 29
Full

Hourly Weather History & Observations

Time (MDT) Temp. Dew Point Humidity Pressure Visibility Wind Dir Wind Speed Gust Speed Precip Events Conditions
12:53 AM 55.9 °F 34.0 °F 44% 29.94 in 10.0 mi SSE 6.9 mph - N/A   Scattered Clouds
1:53 AM 55.0 °F 32.0 °F 42% 29.95 in 10.0 mi ESE 6.9 mph - N/A   Clear
2:53 AM 51.1 °F 33.1 °F 50% 29.96 in 10.0 mi SE 6.9 mph - N/A   Clear
3:53 AM 48.9 °F 28.9 °F 46% 29.96 in 10.0 mi SSE 6.9 mph - N/A   Clear
4:53 AM 46.9 °F 28.0 °F 48% 29.97 in 10.0 mi SSE 6.9 mph - N/A   Clear
5:53 AM 46.9 °F 28.9 °F 50% 29.98 in 10.0 mi SSE 5.8 mph - N/A   Clear
6:53 AM 46.9 °F 28.9 °F 50% 30.00 in 10.0 mi SSE 9.2 mph - N/A   Clear
7:53 AM 46.9 °F 30.0 °F 52% 30.02 in 10.0 mi SSE 6.9 mph - N/A   Clear
8:53 AM 53.1 °F 30.9 °F 43% 30.01 in 10.0 mi Calm Calm - N/A   Clear
9:53 AM 60.1 °F 28.0 °F 30% 29.99 in 10.0 mi Calm Calm - N/A   Clear
10:53 AM 66.0 °F 28.9 °F 25% 29.98 in 10.0 mi Calm Calm - N/A   Clear
11:53 AM 73.0 °F 27.0 °F 18% 29.94 in 10.0 mi Variable 3.5 mph - N/A   Clear
12:53 PM 78.1 °F 27.0 °F 15% 29.91 in 10.0 mi WSW 17.3 mph 26.5 mph N/A   Clear
1:53 PM 80.1 °F 26.1 °F 14% 29.87 in 10.0 mi WSW 17.3 mph 26.5 mph N/A   Clear
2:53 PM 78.1 °F 24.1 °F 14% 29.87 in 10.0 mi West 17.3 mph 28.8 mph N/A   Clear
3:53 PM 79.0 °F 26.1 °F 14% 29.86 in 9.0 mi West 18.4 mph 44.9 mph N/A   Partly Cloudy
4:53 PM 78.1 °F 26.1 °F 15% 29.86 in 10.0 mi WSW 15.0 mph 26.5 mph N/A   Clear
5:53 PM 75.0 °F 25.0 °F 16% 29.86 in 10.0 mi West 10.4 mph - N/A   Clear
6:53 PM 70.0 °F 27.0 °F 20% 29.88 in 10.0 mi South 6.9 mph - N/A   Clear
7:53 PM 68.0 °F 28.9 °F 23% 29.88 in 10.0 mi SSW 11.5 mph - N/A   Scattered Clouds
8:53 PM 70.0 °F 28.9 °F 22% 29.87 in 10.0 mi SW 16.1 mph - N/A   Scattered Clouds
9:53 PM 66.9 °F 30.0 °F 25% 29.88 in 10.0 mi NNW 4.6 mph - N/A   Mostly Cloudy
10:53 PM 63.0 °F 34.0 °F 34% 29.88 in 10.0 mi ESE 3.5 mph - N/A   Overcast
11:53 PM 63.0 °F 34.0 °F 34% 29.82 in 10.0 mi SE 11.5 mph - N/A   Mostly Cloudy